Simultaneous Nadir Overpasses (SNOs) Predictions

Prediction of SNOs between LANDSAT-8 and NPP Satellite Orbit:

Table of predicted SNOs for the next 14.0 days since TLE Epoch: 9/8/2017
Index Date (LANDSAT-8) Time (LANDSAT-8) Lat,Lon (LANDSAT-8) SZA (LANDSAT-8 ) Date (NPP) Time (NPP) Lat,Lon (NPP) SZA (NPP ) Distance(km) Time Diff (sec)
1 09/08/2017 14:42:01 70.11, -43.99 64.57 09/08/2017 14:41:14 70.11, -43.96 64.57 1.21 47
2 09/08/2017 15:31:31 -70.00, 123.48 115.54 09/08/2017 15:31:56 -70.02, 123.50 115.51 2.74 25
3 09/11/2017 06:08:49 -70.97, -94.46 113.59 09/11/2017 06:07:42 -71.01, -96.95 113.51 90.00 67
4 09/11/2017 06:58:30 70.11, 71.89 65.57 09/11/2017 06:58:11 70.11, 71.81 65.58 2.85 19
5 09/11/2017 07:48:00 -70.00,-120.64 114.53 09/11/2017 07:48:52 -69.97,-120.65 114.56 3.44 52
6 09/13/2017 22:25:32 -70.15, 20.18 113.39 09/13/2017 22:24:22 -70.17, 20.17 113.36 3.01 70
7 09/13/2017 23:14:59 70.04,-172.33 66.52 09/13/2017 23:15:06 70.06,-172.34 66.55 2.23 7
8 09/14/2017 00:04:32 -69.77, -5.07 113.73 09/14/2017 00:05:44 -69.76, -4.57 113.76 19.57 72
9 09/16/2017 14:42:01 -70.13, 136.04 112.38 09/16/2017 14:41:18 -70.13, 136.02 112.38 0.84 43
10 09/16/2017 15:31:28 70.02, -56.47 67.53 09/16/2017 15:32:02 70.01, -56.50 67.52 1.29 34
11 09/19/2017 06:08:52 70.64, 85.04 69.15 09/19/2017 06:07:42 70.70, 83.55 69.24 55.21 70
12 09/19/2017 06:58:30 -70.10,-108.12 111.38 09/19/2017 06:58:14 -70.08,-108.14 111.39 2.55 16
13 09/19/2017 07:47:57 69.99, 59.37 68.53 09/19/2017 07:48:58 69.97, 59.33 68.51 2.63 61
14 09/21/2017 22:25:29 70.16,-159.78 69.72 09/21/2017 22:24:28 70.13,-159.78 69.69 3.52 61
15 09/21/2017 23:14:59 -70.06, 7.71 110.38 09/21/2017 23:15:10 -70.04, 7.69 110.40 3.12 11
16 09/22/2017 00:04:36 69.40, 174.44 68.99 09/22/2017 00:05:44 69.39, 175.94 68.97 58.85 68




NCC Satellite Simultaneous Nadir Overpasses (SNOs) Prediction Service
